| time (UTC) | temp F | wind direction | speed MPH | gust MPH | rain 1hr in | rain 24hr in | rain mn in | humidity % | barometer mb |
| 20260508205513 | 65 | 250 | 8.0 | 14.0 | 0.00 | 0.00 | 0.00 | 43 | 1010.0 |
| 20260508205005 | 65 | 231 | 9.0 | 14.0 | 0.00 | 0.00 | 0.00 | 42 | 1009.9 |
| 20260508204515 | 65 | 262 | 8.0 | 12.0 | 0.00 | 0.00 | 0.00 | 44 | 1010.0 |
| 20260508204004 | 65 | 231 | 7.0 | 12.0 | 0.00 | 0.00 | 0.00 | 44 | 1010.0 |
| 20260508203504 | 65 | 238 | 8.0 | 15.0 | 0.00 | 0.00 | 0.00 | 42 | 1009.9 |
| 20260508203012 | 65 | 226 | 8.0 | 17.0 | 0.00 | 0.00 | 0.00 | 42 | 1009.9 |
| 20260508202504 | 65 | 234 | 11.0 | 17.0 | 0.00 | 0.00 | 0.00 | 42 | 1010.1 |
| 20260508202006 | 65 | 231 | 10.0 | 15.0 | 0.00 | 0.00 | 0.00 | 41 | 1010.1 |
| 20260508201510 | 65 | 243 | 8.0 | 19.0 | 0.00 | 0.00 | 0.00 | 43 | 1010.1 |
| 20260508201007 | 65 | 238 | 11.0 | 19.0 | 0.00 | 0.00 | 0.00 | 40 | 1010.1 |
| 20260508200505 | 66 | 223 | 13.0 | 19.0 | 0.00 | 0.00 | 0.00 | 40 | 1010.2 |
| 20260508200022 | 66 | 199 | 10.0 | 19.0 | 0.00 | 0.00 | 0.00 | 39 | 1010.2 |
| 20260508195504 | 66 | 208 | 12.0 | 20.0 | 0.00 | 0.00 | 0.00 | 39 | 1010.1 |
| 20260508195007 | 66 | 237 | 12.0 | 20.0 | 0.00 | 0.00 | 0.00 | 40 | 1010.2 |
| 20260508194522 | 67 | 242 | 13.0 | 19.0 | 0.00 | 0.00 | 0.00 | 39 | 1010.3 |
| 20260508194005 | 67 | 250 | 11.0 | 18.0 | 0.00 | 0.00 | 0.00 | 40 | 1010.4 |
| 20260508193504 | 68 | 194 | 11.0 | 22.0 | 0.00 | 0.00 | 0.00 | 41 | 1010.4 |
| 20260508193012 | 68 | 213 | 12.0 | 22.0 | 0.00 | 0.00 | 0.00 | 41 | 1010.4 |
| 20260508192505 | 68 | 201 | 14.0 | 21.0 | 0.00 | 0.00 | 0.00 | 39 | 1010.7 |
| 20260508192003 | 67 | 217 | 15.0 | 21.0 | 0.00 | 0.00 | 0.00 | 44 | 1010.7 |
| 20260508191516 | 66 | 241 | 11.0 | 21.0 | 0.00 | 0.00 | 0.00 | 41 | 1010.9 |
| 20260508191008 | 67 | 259 | 15.0 | 22.0 | 0.00 | 0.00 | 0.00 | 39 | 1011.0 |
| 20260508190504 | 67 | 246 | 15.0 | 22.0 | 0.00 | 0.00 | 0.00 | 40 | 1011.1 |
| 20260508190030 | 66 | 237 | 12.0 | 23.0 | 0.00 | 0.00 | 0.00 | 41 | 1011.1 |
| 20260508185508 | 66 | 223 | 16.0 | 23.0 | 0.00 | 0.00 | 0.00 | 39 | 1011.1 |
| 20260508185009 | 66 | 209 | 15.0 | 23.0 | 0.00 | 0.00 | 0.00 | 41 | 1011.2 |
| 20260508184514 | 66 | 223 | 14.0 | 23.0 | 0.00 | 0.00 | 0.00 | 41 | 1011.3 |
| 20260508184008 | 65 | 226 | 13.0 | 19.0 | 0.00 | 0.00 | 0.00 | 44 | 1011.4 |
| 20260508183511 | 64 | 217 | 12.0 | 19.0 | 0.00 | 0.00 | 0.00 | 43 | 1011.4 |
| 20260508183011 | 64 | 240 | 14.0 | 19.0 | 0.00 | 0.00 | 0.00 | 44 | 1011.5 |
| 20260508182502 | 64 | 238 | 14.0 | 18.0 | 0.00 | 0.00 | 0.00 | 43 | 1011.5 |
| 20260508182006 | 64 | 241 | 11.0 | 17.0 | 0.00 | 0.00 | 0.00 | 45 | 1011.5 |
| 20260508181521 | 64 | 233 | 12.0 | 18.0 | 0.00 | 0.00 | 0.00 | 45 | 1011.5 |
| 20260508181003 | 64 | 210 | 11.0 | 18.0 | 0.00 | 0.00 | 0.00 | 44 | 1011.5 |
| 20260508180503 | 64 | 237 | 11.0 | 18.0 | 0.00 | 0.00 | 0.00 | 44 | 1011.6 |
| 20260508180006 | 65 | 232 | 10.0 | 20.0 | 0.00 | 0.00 | 0.00 | 43 | 1011.7 |
| 20260508175503 | 66 | 240 | 13.0 | 20.0 | 0.00 | 0.00 | 0.00 | 44 | 1011.8 |
| 20260508175004 | 67 | 219 | 12.0 | 19.0 | 0.00 | 0.00 | 0.00 | 43 | 1011.8 |
| 20260508174505 | 66 | 218 | 15.0 | 19.0 | 0.00 | 0.00 | 0.00 | 44 | 1011.9 |
| 20260508174002 | 66 | 244 | 13.0 | 20.0 | 0.00 | 0.00 | 0.00 | 41 | 1012.1 |
| 20260508173502 | 66 | 221 | 13.0 | 20.0 | 0.00 | 0.00 | 0.00 | 41 | 1012.1 |
| 20260508173005 | 67 | 238 | 13.0 | 19.0 | 0.00 | 0.00 | 0.00 | 44 | 1012.2 |
| 20260508172503 | 66 | 250 | 13.0 | 20.0 | 0.00 | 0.00 | 0.00 | 44 | 1012.5 |
| 20260508172002 | 66 | 248 | 11.0 | 20.0 | 0.00 | 0.00 | 0.00 | 46 | 1012.5 |
| 20260508171510 | 66 | 242 | 11.0 | 19.0 | 0.00 | 0.00 | 0.00 | 46 | 1012.6 |
| 20260508171001 | 65 | 240 | 12.0 | 19.0 | 0.00 | 0.00 | 0.00 | 45 | 1012.6 |
| 20260508170502 | 65 | 272 | 12.0 | 19.0 | 0.00 | 0.00 | 0.00 | 46 | 1012.8 |
| 20260508170006 | 65 | 248 | 8.0 | 19.0 | 0.00 | 0.00 | 0.00 | 47 | 1012.7 |
| 20260508165501 | 65 | 241 | 11.0 | 18.0 | 0.00 | 0.00 | 0.00 | 45 | 1012.9 |
| 20260508165002 | 64 | 242 | 11.0 | 19.0 | 0.00 | 0.00 | 0.00 | 46 | 1012.8 |
| 20260508164506 | 64 | 250 | 12.0 | 19.0 | 0.00 | 0.00 | 0.00 | 46 | 1012.9 |
| 20260508164002 | 64 | 259 | 9.0 | 21.0 | 0.00 | 0.00 | 0.00 | 50 | 1012.9 |
| 20260508163501 | 65 | 221 | 12.0 | 21.0 | 0.00 | 0.00 | 0.00 | 46 | 1013.0 |
| 20260508163005 | 64 | 215 | 11.0 | 21.0 | 0.00 | 0.00 | 0.00 | 46 | 1013.0 |
| 20260508162502 | 64 | 230 | 12.0 | 20.0 | 0.00 | 0.00 | 0.00 | 48 | 1013.1 |
| 20260508162001 | 63 | 201 | 12.0 | 19.0 | 0.00 | 0.00 | 0.00 | 50 | 1013.3 |
| 20260508161506 | 62 | 215 | 12.0 | 20.0 | 0.00 | 0.00 | 0.00 | 51 | 1013.4 |
| 20260508161001 | 62 | 211 | 12.0 | 20.0 | 0.00 | 0.00 | 0.00 | 49 | 1013.4 |
| 20260508160501 | 62 | 229 | 11.0 | 16.0 | 0.00 | 0.00 | 0.00 | 52 | 1013.5 |
| 20260508160007 | 62 | 220 | 11.0 | 21.0 | 0.00 | 0.00 | 0.00 | 51 | 1013.6 |
| 20260508155502 | 63 | 242 | 13.0 | 21.0 | 0.00 | 0.00 | 0.00 | 50 | 1013.5 |
| 20260508155002 | 62 | 211 | 12.0 | 20.0 | 0.00 | 0.00 | 0.00 | 52 | 1013.4 |
| 20260508154507 | 61 | 220 | 13.0 | 20.0 | 0.00 | 0.00 | 0.00 | 51 | 1013.4 |
| 20260508154001 | 60 | 211 | 11.0 | 17.0 | 0.00 | 0.00 | 0.00 | 51 | 1013.5 |
| 20260508153502 | 60 | 206 | 10.0 | 18.0 | 0.00 | 0.00 | 0.00 | 54 | 1013.5 |
| 20260508153006 | 60 | 234 | 10.0 | 18.0 | 0.00 | 0.00 | 0.00 | 52 | 1013.6 |
| 20260508152502 | 60 | 228 | 10.0 | 15.0 | 0.00 | 0.00 | 0.00 | 53 | 1013.6 |
| 20260508152004 | 60 | 234 | 7.0 | 16.0 | 0.00 | 0.00 | 0.00 | 55 | 1013.7 |
| 20260508151517 | 60 | 234 | 10.0 | 15.0 | 0.00 | 0.00 | 0.00 | 51 | 1013.8 |
| 20260508151006 | 60 | 200 | 8.0 | 20.0 | 0.00 | 0.00 | 0.00 | 54 | 1013.9 |
| 20260508150502 | 60 | 241 | 16.0 | 21.0 | 0.00 | 0.00 | 0.00 | 50 | 1013.9 |
| 20260508150012 | 60 | 234 | 13.0 | 21.0 | 0.00 | 0.00 | 0.00 | 51 | 1013.9 |
| 20260508145502 | 59 | 244 | 14.0 | 20.0 | 0.00 | 0.00 | 0.00 | 52 | 1013.9 |
| 20260508145003 | 59 | 228 | 10.0 | 20.0 | 0.00 | 0.00 | 0.00 | 53 | 1013.9 |
| 20260508144510 | 59 | 265 | 11.0 | 17.0 | 0.00 | 0.00 | 0.00 | 54 | 1013.9 |
| 20260508144003 | 59 | 236 | 12.0 | 19.0 | 0.00 | 0.00 | 0.00 | 53 | 1014.0 |
| 20260508143503 | 59 | 222 | 14.0 | 19.0 | 0.00 | 0.00 | 0.00 | 52 | 1014.0 |
| 20260508143006 | 59 | 241 | 10.0 | 17.0 | 0.00 | 0.00 | 0.00 | 53 | 1014.0 |
| 20260508142502 | 58 | 238 | 10.0 | 19.0 | 0.00 | 0.00 | 0.00 | 52 | 1014.0 |
| 20260508142002 | 58 | 259 | 10.0 | 19.0 | 0.00 | 0.00 | 0.00 | 55 | 1014.0 |
| 20260508141512 | 58 | 257 | 10.0 | 16.0 | 0.00 | 0.00 | 0.00 | 55 | 1013.9 |
| 20260508141003 | 57 | 225 | 12.0 | 16.0 | 0.00 | 0.00 | 0.00 | 55 | 1013.9 |
| 20260508140502 | 57 | 207 | 9.0 | 17.0 | 0.00 | 0.00 | 0.00 | 57 | 1014.1 |
| 20260508140011 | 56 | 256 | 10.0 | 19.0 | 0.00 | 0.00 | 0.00 | 55 | 1014.1 |
| 20260508135503 | 56 | 243 | 10.0 | 19.0 | 0.00 | 0.00 | 0.00 | 57 | 1014.1 |
| 20260508135002 | 56 | 232 | 10.0 | 19.0 | 0.00 | 0.00 | 0.00 | 55 | 1014.1 |
| 20260508134511 | 55 | 229 | 9.0 | 15.0 | 0.00 | 0.00 | 0.00 | 56 | 1014.2 |
| 20260508134005 | 55 | 241 | 9.0 | 15.0 | 0.00 | 0.00 | 0.00 | 56 | 1014.3 |
| 20260508133502 | 55 | 245 | 9.0 | 17.0 | 0.00 | 0.00 | 0.00 | 56 | 1014.2 |
| 20260508133010 | 55 | 228 | 11.0 | 17.0 | 0.00 | 0.00 | 0.00 | 57 | 1014.2 |
| 20260508132503 | 55 | 242 | 11.0 | 17.0 | 0.00 | 0.00 | 0.00 | 59 | 1014.1 |
| 20260508132002 | 54 | 239 | 10.0 | 16.0 | 0.00 | 0.00 | 0.00 | 58 | 1014.1 |
| 20260508131512 | 53 | 235 | 11.0 | 17.0 | 0.00 | 0.00 | 0.00 | 59 | 1014.1 |
| 20260508131006 | 53 | 215 | 11.0 | 17.0 | 0.00 | 0.00 | 0.00 | 59 | 1014.1 |
| 20260508130503 | 53 | 236 | 9.0 | 15.0 | 0.00 | 0.00 | 0.00 | 61 | 1014.0 |
| 20260508130012 | 52 | 226 | 10.0 | 17.0 | 0.00 | 0.00 | 0.00 | 61 | 1014.0 |
| 20260508125506 | 52 | 207 | 10.0 | 17.0 | 0.00 | 0.00 | 0.00 | 63 | 1014.0 |
| 20260508125003 | 52 | 240 | 10.0 | 14.0 | 0.00 | 0.00 | 0.00 | 63 | 1014.0 |
| 20260508124521 | 51 | 222 | 8.0 | 13.0 | 0.00 | 0.00 | 0.00 | 65 | 1014.0 |
| 20260508124002 | 50 | 208 | 7.0 | 10.0 | 0.00 | 0.00 | 0.00 | 68 | 1014.0 |
| 20260508123502 | 49 | 219 | 6.0 | 11.0 | 0.00 | 0.00 | 0.00 | 68 | 1014.1 |
| 20260508123013 | 49 | 219 | 6.0 | 12.0 | 0.00 | 0.00 | 0.00 | 67 | 1014.1 |
| 20260508122505 | 49 | 216 | 7.0 | 12.0 | 0.00 | 0.00 | 0.00 | 67 | 1014.1 |
| 20260508122007 | 49 | 183 | 6.0 | 11.0 | 0.00 | 0.00 | 0.00 | 67 | 1014.1 |
| 20260508121513 | 49 | 234 | 7.0 | 11.0 | 0.00 | 0.00 | 0.00 | 66 | 1014.1 |
| 20260508121005 | 49 | 213 | 7.0 | 11.0 | 0.00 | 0.00 | 0.00 | 66 | 1014.0 |
| 20260508120505 | 49 | 218 | 7.0 | 11.0 | 0.00 | 0.00 | 0.00 | 68 | 1014.0 |
| 20260508120011 | 49 | 205 | 6.0 | 9.0 | 0.00 | 0.00 | 0.00 | 69 | 1013.9 |
| 20260508115503 | 48 | 215 | 7.0 | 9.0 | 0.00 | 0.00 | 0.00 | 69 | 1013.9 |
| 20260508115002 | 48 | 208 | 5.0 | 11.0 | 0.00 | 0.00 | 0.00 | 70 | 1013.9 |
| 20260508114513 | 47 | 225 | 5.0 | 11.0 | 0.00 | 0.00 | 0.00 | 70 | 1013.9 |
| 20260508114006 | 47 | 229 | 5.0 | 8.0 | 0.00 | 0.00 | 0.00 | 71 | 1013.9 |
| 20260508113505 | 47 | 211 | 5.0 | 8.0 | 0.00 | 0.00 | 0.00 | 71 | 1013.9 |
| 20260508113016 | 46 | 213 | 6.0 | 8.0 | 0.00 | 0.00 | 0.00 | 71 | 1013.8 |
| 20260508112504 | 46 | 209 | 6.0 | 8.0 | 0.00 | 0.00 | 0.00 | 71 | 1013.8 |
| 20260508112004 | 46 | 213 | 5.0 | 8.0 | 0.00 | 0.00 | 0.00 | 71 | 1013.6 |
| 20260508111513 | 46 | 203 | 6.0 | 8.0 | 0.00 | 0.00 | 0.00 | 72 | 1013.6 |
| 20260508111004 | 45 | 215 | 6.0 | 8.0 | 0.00 | 0.00 | 0.00 | 72 | 1013.6 |
| 20260508110503 | 45 | 209 | 5.0 | 8.0 | 0.00 | 0.00 | 0.00 | 72 | 1013.6 |
| 20260508110018 | 45 | 236 | 5.0 | 8.0 | 0.00 | 0.00 | 0.00 | 72 | 1013.6 |
| 20260508105506 | 44 | 212 | 4.0 | 6.0 | 0.00 | 0.00 | 0.00 | 74 | 1013.6 |
| 20260508105003 | 44 | 218 | 4.0 | 6.0 | 0.00 | 0.00 | 0.00 | 74 | 1013.5 |
| 20260508104514 | 44 | 209 | 4.0 | 6.0 | 0.00 | 0.00 | 0.00 | 74 | 1013.4 |
| 20260508104003 | 44 | 207 | 4.0 | 6.0 | 0.00 | 0.00 | 0.00 | 74 | 1013.4 |
| 20260508103506 | 43 | 207 | 5.0 | 6.0 | 0.00 | 0.00 | 0.00 | 74 | 1013.4 |
| 20260508103015 | 44 | 210 | 4.0 | 7.0 | 0.00 | 0.00 | 0.00 | 74 | 1013.4 |
| 20260508102504 | 44 | 218 | 4.0 | 7.0 | 0.00 | 0.00 | 0.00 | 73 | 1013.5 |
| 20260508102004 | 44 | 210 | 4.0 | 7.0 | 0.00 | 0.00 | 0.00 | 73 | 1013.4 |
| 20260508101516 | 44 | 213 | 5.0 | 8.0 | 0.00 | 0.00 | 0.00 | 72 | 1013.4 |
| 20260508101004 | 44 | 217 | 6.0 | 9.0 | 0.00 | 0.00 | 0.00 | 71 | 1013.4 |
| 20260508100507 | 44 | 217 | 5.0 | 9.0 | 0.00 | 0.00 | 0.00 | 71 | 1013.4 |
| 20260508100017 | 44 | 215 | 6.0 | 8.0 | 0.00 | 0.00 | 0.00 | 71 | 1013.4 |
| 20260508095504 | 44 | 229 | 5.0 | 7.0 | 0.00 | 0.00 | 0.00 | 72 | 1013.3 |
| 20260508095010 | 44 | 226 | 4.0 | 7.0 | 0.00 | 0.00 | 0.00 | 71 | 1013.3 |
| 20260508094521 | 44 | 220 | 5.0 | 7.0 | 0.00 | 0.00 | 0.00 | 72 | 1013.3 |
| 20260508094006 | 44 | 219 | 5.0 | 6.0 | 0.00 | 0.00 | 0.00 | 72 | 1013.3 |
| 20260508093503 | 44 | 223 | 4.0 | 6.0 | 0.00 | 0.00 | 0.00 | 72 | 1013.4 |
| 20260508093020 | 44 | 213 | 4.0 | 6.0 | 0.00 | 0.00 | 0.00 | 71 | 1013.4 |
| 20260508092507 | 44 | 202 | 5.0 | 7.0 | 0.00 | 0.00 | 0.00 | 71 | 1013.5 |
| 20260508092006 | 44 | 206 | 5.0 | 7.0 | 0.00 | 0.00 | 0.00 | 70 | 1013.5 |
| 20260508091530 | 44 | 210 | 5.0 | 8.0 | 0.00 | 0.00 | 0.00 | 71 | 1013.5 |
| 20260508091006 | 44 | 215 | 4.0 | 8.0 | 0.00 | 0.00 | 0.00 | 71 | 1013.5 |
| 20260508090503 | 44 | 225 | 4.0 | 7.0 | 0.00 | 0.00 | 0.00 | 70 | 1013.5 |
| 20260508090015 | 44 | 215 | 4.0 | 7.0 | 0.00 | 0.00 | 0.00 | 70 | 1013.5 |
| 20260508085502 | 45 | 227 | 4.0 | 7.0 | 0.00 | 0.00 | 0.00 | 69 | 1013.5 |
| 20260508085005 | 45 | 205 | 4.0 | 7.0 | 0.00 | 0.00 | 0.00 | 68 | 1013.4 |
| 20260508084505 | 45 | 218 | 4.0 | 7.0 | 0.00 | 0.00 | 0.00 | 68 | 1013.4 |
| 20260508084004 | 45 | 215 | 4.0 | 7.0 | 0.00 | 0.00 | 0.00 | 67 | 1013.4 |
| 20260508083504 | 46 | 218 | 5.0 | 8.0 | 0.00 | 0.00 | 0.00 | 67 | 1013.4 |
| 20260508083016 | 46 | 226 | 5.0 | 8.0 | 0.00 | 0.00 | 0.00 | 66 | 1013.4 |
| 20260508082506 | 45 | 208 | 5.0 | 8.0 | 0.00 | 0.00 | 0.00 | 67 | 1013.4 |
| 20260508082003 | 45 | 225 | 5.0 | 8.0 | 0.00 | 0.00 | 0.00 | 67 | 1013.5 |
| 20260508081516 | 46 | 217 | 5.0 | 8.0 | 0.00 | 0.00 | 0.00 | 66 | 1013.4 |
| 20260508081004 | 46 | 215 | 5.0 | 8.0 | 0.00 | 0.00 | 0.00 | 66 | 1013.4 |
| 20260508080506 | 46 | 206 | 5.0 | 8.0 | 0.00 | 0.00 | 0.00 | 66 | 1013.3 |
| 20260508080020 | 46 | 221 | 5.0 | 9.0 | 0.00 | 0.00 | 0.00 | 66 | 1013.3 |
| 20260508075505 | 46 | 232 | 5.0 | 9.0 | 0.00 | 0.00 | 0.00 | 65 | 1013.4 |
| 20260508075007 | 46 | 217 | 6.0 | 9.0 | 0.00 | 0.00 | 0.00 | 65 | 1013.4 |
| 20260508074519 | 46 | 236 | 6.0 | 9.0 | 0.00 | 0.00 | 0.00 | 65 | 1013.4 |
| 20260508074003 | 46 | 251 | 6.0 | 9.0 | 0.00 | 0.00 | 0.00 | 64 | 1013.4 |
| 20260508073503 | 46 | 234 | 6.0 | 9.0 | 0.00 | 0.00 | 0.00 | 64 | 1013.4 |
| 20260508073005 | 46 | 224 | 6.0 | 12.0 | 0.00 | 0.00 | 0.00 | 64 | 1013.4 |
| 20260508072502 | 47 | 237 | 6.0 | 12.0 | 0.00 | 0.00 | 0.00 | 64 | 1013.4 |
| 20260508072003 | 47 | 233 | 7.0 | 11.0 | 0.00 | 0.00 | 0.00 | 64 | 1013.4 |
| 20260508071512 | 47 | 230 | 7.0 | 12.0 | 0.00 | 0.00 | 0.00 | 64 | 1013.5 |
| 20260508071007 | 47 | 226 | 6.0 | 12.0 | 0.00 | 0.00 | 0.00 | 63 | 1013.5 |
| 20260508070506 | 47 | 228 | 8.0 | 12.0 | 0.00 | 0.00 | 0.00 | 62 | 1013.6 |
| 20260508070011 | 47 | 228 | 8.0 | 14.0 | 0.00 | 0.00 | 0.00 | 62 | 1013.6 |
| 20260508065506 | 48 | 244 | 8.0 | 14.0 | 0.00 | 0.00 | 0.00 | 61 | 1013.6 |
| 20260508065007 | 47 | 221 | 7.0 | 13.0 | 0.00 | 0.00 | 0.00 | 62 | 1013.6 |
| 20260508064510 | 47 | 229 | 8.0 | 13.0 | 0.00 | 0.00 | 0.00 | 62 | 1013.6 |
| 20260508064003 | 47 | 223 | 8.0 | 12.0 | 0.00 | 0.00 | 0.00 | 63 | 1013.7 |
| 20260508063505 | 47 | 206 | 7.0 | 12.0 | 0.00 | 0.00 | 0.00 | 63 | 1013.7 |
| 20260508063026 | 47 | 224 | 7.0 | 10.0 | 0.00 | 0.00 | 0.00 | 63 | 1013.7 |
| 20260508062504 | 47 | 227 | 6.0 | 10.0 | 0.00 | 0.00 | 0.00 | 64 | 1013.8 |
| 20260508062005 | 47 | 220 | 6.0 | 10.0 | 0.00 | 0.00 | 0.00 | 64 | 1013.8 |
| 20260508061510 | 47 | 219 | 6.0 | 10.0 | 0.00 | 0.00 | 0.00 | 64 | 1013.8 |
| 20260508061004 | 47 | 215 | 6.0 | 10.0 | 0.00 | 0.00 | 0.00 | 65 | 1013.8 |
| 20260508060502 | 47 | 211 | 6.0 | 9.0 | 0.00 | 0.00 | 0.00 | 66 | 1013.8 |
| 20260508060019 | 47 | 208 | 6.0 | 8.0 | 0.00 | 0.00 | 0.00 | 67 | 1013.9 |
| 20260508055503 | 46 | 206 | 5.0 | 7.0 | 0.00 | 0.00 | 0.00 | 67 | 1013.9 |
| 20260508055003 | 46 | 215 | 4.0 | 7.0 | 0.00 | 0.00 | 0.00 | 68 | 1013.9 |
| 20260508054521 | 46 | 219 | 4.0 | 8.0 | 0.00 | 0.00 | 0.00 | 67 | 1013.8 |
| 20260508054010 | 46 | 202 | 6.0 | 8.0 | 0.00 | 0.00 | 0.00 | 68 | 1013.9 |
| 20260508053507 | 46 | 210 | 5.0 | 7.0 | 0.00 | 0.00 | 0.00 | 67 | 1013.9 |
| 20260508053012 | 47 | 213 | 5.0 | 7.0 | 0.00 | 0.00 | 0.00 | 67 | 1013.9 |
| 20260508052507 | 47 | 207 | 6.0 | 8.0 | 0.00 | 0.00 | 0.00 | 67 | 1013.9 |
| 20260508052013 | 47 | 213 | 6.0 | 8.0 | 0.00 | 0.00 | 0.00 | 67 | 1014.0 |
| 20260508051508 | 46 | 202 | 5.0 | 7.0 | 0.00 | 0.00 | 0.00 | 67 | 1014.0 |
| 20260508051003 | 46 | 214 | 5.0 | 6.0 | 0.00 | 0.00 | 0.00 | 67 | 1014.0 |
| 20260508050503 | 46 | 200 | 5.0 | 7.0 | 0.00 | 0.00 | 0.00 | 67 | 1013.9 |
| 20260508050014 | 47 | 202 | 6.0 | 6.0 | 0.00 | 0.00 | 0.00 | 67 | 1013.9 |
| 20260508045502 | 47 | 198 | 5.0 | 7.0 | 0.00 | 0.00 | 0.00 | 66 | 1013.9 |
| 20260508045003 | 47 | 207 | 5.0 | 7.0 | 0.00 | 0.00 | 0.00 | 66 | 1014.0 |
| 20260508044518 | 47 | 208 | 5.0 | 6.0 | 0.00 | 0.00 | 0.00 | 65 | 1014.0 |
| 20260508044004 | 47 | 211 | 5.0 | 7.0 | 0.00 | 0.00 | 0.00 | 65 | 1013.9 |
| 20260508043503 | 47 | 208 | 5.0 | 7.0 | 0.00 | 0.00 | 0.00 | 66 | 1014.0 |
| 20260508043021 | 47 | 200 | 5.0 | 6.0 | 0.00 | 0.00 | 0.00 | 67 | 1013.9 |
| 20260508042507 | 47 | 206 | 5.0 | 7.0 | 0.00 | 0.00 | 0.00 | 66 | 1013.9 |
| 20260508042011 | 47 | 207 | 5.0 | 7.0 | 0.00 | 0.00 | 0.00 | 65 | 1013.9 |
| 20260508041520 | 47 | 217 | 5.0 | 7.0 | 0.00 | 0.00 | 0.00 | 65 | 1014.0 |
| 20260508041006 | 47 | 204 | 6.0 | 7.0 | 0.00 | 0.00 | 0.00 | 67 | 1014.0 |
| 20260508040504 | 47 | 213 | 5.0 | 7.0 | 0.00 | 0.00 | 0.00 | 66 | 1014.0 |
| 20260508040011 | 48 | 205 | 5.0 | 7.0 | 0.00 | 0.00 | 0.00 | 66 | 1014.1 |
| 20260508035503 | 48 | 202 | 5.0 | 8.0 | 0.00 | 0.00 | 0.00 | 66 | 1014.0 |
| 20260508035004 | 48 | 215 | 5.0 | 8.0 | 0.00 | 0.00 | 0.00 | 64 | 1014.0 |
| 20260508034522 | 48 | 205 | 5.0 | 7.0 | 0.00 | 0.00 | 0.00 | 64 | 1014.1 |
| 20260508034003 | 49 | 209 | 5.0 | 7.0 | 0.00 | 0.00 | 0.00 | 61 | 1014.1 |
| 20260508033506 | 49 | 222 | 4.0 | 8.0 | 0.00 | 0.00 | 0.00 | 61 | 1014.0 |
| 20260508033021 | 49 | 220 | 5.0 | 8.0 | 0.00 | 0.00 | 0.00 | 61 | 1014.0 |
| 20260508032504 | 49 | 208 | 5.0 | 8.0 | 0.00 | 0.00 | 0.00 | 61 | 1014.0 |
| 20260508032006 | 49 | 215 | 6.0 | 8.0 | 0.00 | 0.00 | 0.00 | 60 | 1013.9 |
| 20260508031522 | 49 | 229 | 5.0 | 8.0 | 0.00 | 0.00 | 0.00 | 60 | 1013.9 |
| 20260508031003 | 49 | 212 | 6.0 | 8.0 | 0.00 | 0.00 | 0.00 | 62 | 1013.9 |
| 20260508030506 | 48 | 207 | 4.0 | 5.0 | 0.00 | 0.00 | 0.00 | 66 | 1013.9 |
| 20260508030027 | 47 | 208 | 4.0 | 5.0 | 0.00 | 0.00 | 0.00 | 69 | 1013.9 |
| 20260508025505 | 48 | 203 | 3.0 | 3.0 | 0.00 | 0.00 | 0.00 | 66 | 1014.1 |
| 20260508025005 | 48 | 213 | 2.0 | 4.0 | 0.00 | 0.00 | 0.00 | 63 | 1014.1 |
| 20260508024519 | 49 | 207 | 2.0 | 5.0 | 0.00 | 0.00 | 0.00 | 60 | 1014.0 |
| 20260508024003 | 49 | 205 | 3.0 | 5.0 | 0.00 | 0.00 | 0.00 | 60 | 1014.0 |
| 20260508023503 | 49 | 217 | 3.0 | 5.0 | 0.00 | 0.00 | 0.00 | 59 | 1014.0 |
| 20260508023017 | 49 | 208 | 3.0 | 5.0 | 0.00 | 0.00 | 0.00 | 63 | 1014.0 |
| 20260508022507 | 49 | 207 | 3.0 | 5.0 | 0.00 | 0.00 | 0.00 | 62 | 1014.0 |
| 20260508022004 | 49 | 208 | 3.0 | 4.0 | 0.00 | 0.00 | 0.00 | 62 | 1014.0 |
| 20260508021530 | 50 | 225 | 2.0 | 5.0 | 0.00 | 0.00 | 0.00 | 60 | 1014.1 |
| 20260508021011 | 50 | 222 | 2.0 | 5.0 | 0.00 | 0.00 | 0.00 | 60 | 1014.2 |
| 20260508020508 | 49 | 213 | 2.0 | 4.0 | 0.00 | 0.00 | 0.00 | 69 | 1014.1 |
| 20260508020017 | 48 | 198 | 3.0 | 4.0 | 0.00 | 0.00 | 0.00 | 68 | 1014.1 |
| 20260508015507 | 50 | 202 | 3.0 | 3.0 | 0.00 | 0.00 | 0.00 | 62 | 1014.1 |
| 20260508015010 | 49 | 217 | 2.0 | 3.0 | 0.00 | 0.00 | 0.00 | 71 | 1014.1 |
| 20260508014514 | 48 | 214 | 2.0 | 2.0 | 0.00 | 0.00 | 0.00 | 71 | 1014.1 |
| 20260508014009 | 49 | 195 | 1.0 | 2.0 | 0.00 | 0.00 | 0.00 | 71 | 1013.9 |
| 20260508013507 | 49 | 227 | 0.0 | 2.0 | 0.00 | 0.00 | 0.00 | 67 | 1014.0 |
| 20260508013013 | 49 | 240 | 1.0 | 2.0 | 0.00 | 0.00 | 0.00 | 67 | 1014.0 |
| 20260508012503 | 49 | 240 | 0.0 | 1.0 | 0.00 | 0.00 | 0.00 | 66 | 1014.0 |
| 20260508012009 | 48 | 240 | 1.0 | 2.0 | 0.00 | 0.00 | 0.00 | 68 | 1013.9 |
| 20260508011527 | 49 | 240 | 1.0 | 2.0 | 0.00 | 0.00 | 0.00 | 71 | 1013.8 |
| 20260508011004 | 49 | 240 | 0.0 | 0.0 | 0.00 | 0.00 | 0.00 | 69 | 1013.8 |
| 20260508010505 | 49 | 240 | 0.0 | 0.0 | 0.00 | 0.00 | 0.00 | 67 | 1013.9 |
| 20260508010036 | 49 | 240 | 0.0 | 0.0 | 0.00 | 0.00 | 0.00 | 58 | 1013.9 |
| 20260508005508 | 50 | 240 | 0.0 | 0.0 | 0.00 | 0.00 | 0.00 | 58 | 1013.8 |
| 20260508005008 | 50 | 240 | 0.0 | 0.0 | 0.00 | 0.00 | 0.00 | 59 | 1013.7 |
| 20260508004522 | 51 | 240 | 0.0 | 0.0 | 0.00 | 0.00 | 0.00 | 56 | 1013.7 |
| 20260508004016 | 51 | 240 | 0.0 | 0.0 | 0.00 | 0.00 | 0.00 | 54 | 1013.7 |
| 20260508003510 | 52 | 240 | 0.0 | 0.0 | 0.00 | 0.00 | 0.00 | 52 | 1013.6 |
| 20260508003019 | 52 | 240 | 0.0 | 2.0 | 0.00 | 0.00 | 0.00 | 53 | 1013.6 |
| 20260508002509 | 52 | 240 | 0.0 | 2.0 | 0.00 | 0.00 | 0.00 | 56 | 1013.5 |
| 20260508002010 | 53 | 240 | 0.0 | 2.0 | 0.00 | 0.00 | 0.00 | 55 | 1013.5 |
| 20260508001518 | 53 | 240 | 0.0 | 2.0 | 0.00 | 0.00 | 0.00 | 51 | 1013.5 |
| 20260508001004 | 54 | 240 | 0.0 | 2.0 | 0.00 | 0.00 | 0.00 | 51 | 1013.5 |
| 20260508000508 | 54 | 221 | 0.0 | 5.0 | 0.00 | 0.00 | 0.00 | 47 | 1013.5 |
| 20260508000019 | 54 | 213 | 0.0 | 5.0 | 0.00 | 0.00 | 0.00 | 45 | 1013.5 |
| 20260507235509 | 55 | 352 | 1.0 | 2.0 | 0.00 | 0.00 | 0.00 | 48 | 1013.5 |
| 20260507235007 | 55 | 316 | 0.0 | 2.0 | 0.00 | 0.00 | 0.00 | 45 | 1013.4 |
| 20260507234525 | 55 | 330 | 1.0 | 3.0 | 0.00 | 0.00 | 0.00 | 44 | 1013.4 |
| 20260507234007 | 55 | 253 | 1.0 | 3.0 | 0.00 | 0.00 | 0.00 | 42 | 1013.4 |
| 20260507233506 | 56 | 311 | 0.0 | 3.0 | 0.00 | 0.00 | 0.00 | 44 | 1013.3 |
| 20260507233033 | 56 | 346 | 2.0 | 4.0 | 0.00 | 0.00 | 0.00 | 43 | 1013.3 |
| 20260507232507 | 56 | 343 | 1.0 | 4.0 | 0.00 | 0.00 | 0.00 | 43 | 1013.2 |
| 20260507232008 | 56 | 321 | 1.0 | 5.0 | 0.00 | 0.00 | 0.00 | 42 | 1013.3 |
| 20260507231530 | 57 | 253 | 1.0 | 8.0 | 0.00 | 0.00 | 0.00 | 41 | 1013.3 |
| 20260507231011 | 58 | 311 | 3.0 | 8.0 | 0.00 | 0.00 | 0.00 | 41 | 1013.3 |
| 20260507230506 | 58 | 317 | 3.0 | 5.0 | 0.00 | 0.00 | 0.00 | 43 | 1013.3 |
| 20260507230032 | 58 | 315 | 1.0 | 4.0 | 0.00 | 0.00 | 0.00 | 38 | 1013.2 |
| 20260507225510 | 58 | 293 | 1.0 | 5.0 | 0.00 | 0.00 | 0.00 | 42 | 1013.1 |
| 20260507225005 | 58 | 206 | 1.0 | 5.0 | 0.00 | 0.00 | 0.00 | 44 | 1013.2 |
| 20260507225002 | 58 | 227 | 1.0 | 5.0 | 0.00 | 0.00 | 0.00 | 44 | 1013.2 |
| 20260507224508 | 60 | 317 | 2.0 | 9.0 | 0.00 | 0.00 | 0.00 | 44 | 1013.2 |
| 20260507224003 | 59 | 283 | 3.0 | 14.0 | 0.00 | 0.00 | 0.00 | 42 | 1013.3 |
| 20260507223503 | 59 | 324 | 5.0 | 14.0 | 0.00 | 0.00 | 0.00 | 39 | 1013.4 |
| 20260507223003 | 61 | 321 | 3.0 | 12.0 | 0.00 | 0.00 | 0.00 | 42 | 1013.5 |
| 20260507222502 | 59 | 295 | 2.0 | 12.0 | 0.00 | 0.00 | 0.00 | 44 | 1013.6 |
| 20260507222004 | 60 | 337 | 7.0 | 12.0 | 0.00 | 0.00 | 0.00 | 40 | 1013.6 |
| 20260507221503 | 59 | 334 | 6.0 | 12.0 | 0.00 | 0.00 | 0.00 | 43 | 1013.5 |
| 20260507221001 | 60 | 327 | 3.0 | 9.0 | 0.00 | 0.00 | 0.00 | 42 | 1013.5 |
| 20260507220501 | 60 | 360 | 5.0 | 12.0 | 0.00 | 0.00 | 0.00 | 41 | 1013.6 |
| 20260507220002 | 60 | 333 | 7.0 | 12.0 | 0.00 | 0.00 | 0.00 | 38 | 1013.6 |
| 20260507215505 | 60 | 261 | 5.0 | 11.0 | 0.00 | 0.00 | 0.00 | 47 | 1013.5 |
| 20260507215003 | 58 | 205 | 4.0 | 11.0 | 0.00 | 0.00 | 0.00 | 43 | 1013.5 |
| 20260507214503 | 58 | 302 | 4.0 | 11.0 | 0.00 | 0.00 | 0.00 | 41 | 1013.6 |
| 20260507214002 | 59 | 49 | 3.0 | 10.0 | 0.00 | 0.00 | 0.00 | 44 | 1013.6 |
| 20260507213503 | 59 | 300 | 2.0 | 12.0 | 0.00 | 0.00 | 0.00 | 40 | 1013.5 |
| 20260507213007 | 61 | 340 | 6.0 | 12.0 | 0.00 | 0.00 | 0.00 | 41 | 1013.5 |
| 20260507212503 | 60 | 346 | 6.0 | 11.0 | 0.00 | 0.00 | 0.00 | 43 | 1013.5 |
| 20260507212004 | 60 | 340 | 3.0 | 11.0 | 0.00 | 0.00 | 0.00 | 41 | 1013.5 |
| 20260507211504 | 60 | 9 | 4.0 | 11.0 | 0.00 | 0.00 | 0.00 | 43 | 1013.5 |
| 20260507211002 | 59 | 319 | 3.0 | 11.0 | 0.00 | 0.00 | 0.00 | 42 | 1013.4 |
| 20260507210503 | 60 | 335 | 6.0 | 10.0 | 0.00 | 0.00 | 0.00 | 44 | 1013.4 |
| 20260507210003 | 59 | 79 | 4.0 | 12.0 | 0.00 | 0.00 | 0.00 | 44 | 1013.3 |